Stations météo

réclame
Mon MeteoGroup
Ponferrada, Espagne (8053): Température de l'air & dewpoint: 19.02.2018 02:00:00 - 25.02.2018 02:00:00 (CET)Ponferrada, Espagne (8053): Vitesse du vent: 19.02.2018 02:00:00 - 25.02.2018 02:00:00 (CET)Ponferrada, Espagne (8053): Direction du vent: 19.02.2018 02:00:00 - 25.02.2018 02:00:00 (CET)Ponferrada, Espagne (8053): reduced air pressure: 19.02.2018 02:00:00 - 25.02.2018 02:00:00 (CET)Ponferrada, Espagne (8053): visibility: 19.02.2018 02:00:00 - 25.02.2018 02:00:00 (CET)Ponferrada, Espagne (8053): Quantités de précipitations: 19.02.2018 02:00:00 - 25.02.2018 02:00:00 (CET)
Date & Time tt [°C] td [°C] ff [km/h] ff [knt] dd ppp [hPa] vv [km] rr [mm]
25.02.2018 02:00:00 -0,1 -6,3 2 1 ESE 1013,6 19 0,0
25.02.2018 01:00:00 1,2 -6,6 2 1 NE 1012,7 20 -
25.02.2018 00:00:00 2,4 -6,5 2 1 NE 1012,0 20 0,0
24.02.2018 23:00:00 4,8 -6,7 2 1 WSW 1010,7 20 0,0
24.02.2018 22:00:00 6,8 -8,0 5 3 SE 1009,3 20 -
24.02.2018 21:00:00 7,5 -8,2 9 5 E 1008,2 20 0,0
24.02.2018 20:00:00 8,9 -6,5 8 4 SE 1007,1 20 0,0
24.02.2018 19:00:00 13,3 -8,6 2 1 W 1005,2 20 -
24.02.2018 18:00:00 14,7 -11,7 4 2 SW 1004,1 20 0,0
24.02.2018 17:00:00 14,4 -9,7 5 3 W 1004,1 20 0,0
24.02.2018 16:00:00 13,6 -8,4 2 1 SW 1004,3 20 -
24.02.2018 15:00:00 12,4 -3,9 4 2 NNW 1004,9 20 0,0
24.02.2018 14:00:00 10,1 -3,3 5 3 NW 1006,3 20 0,0
24.02.2018 13:00:00 7,4 -4,1 5 3 WNW 1007,7 20 -
24.02.2018 12:00:00 4,4 -3,6 4 2 W 1008,8 20 0,0
24.02.2018 11:00:00 1,6 -3,9 4 2 NW 1009,9 19 0,0
24.02.2018 10:00:00 0,3 -4,7 2 1 NW 1010,4 16 -
24.02.2018 09:00:00 -2,6 -5,1 2 1 ESE 1011,0 20 0,0
24.02.2018 08:00:00 -3,8 -6,3 2 1 WNW 1010,8 20 0,0
24.02.2018 07:00:00 -3,3 -5,9 4 2 ESE 1010,4 20 -
24.02.2018 06:00:00 -3,1 -6,1 2 1 E 1010,0 20 0,0
24.02.2018 05:00:00 -2,7 -6,2 2 1 ENE 1009,8 20 0,0
24.02.2018 04:00:00 -2,1 -6,1 2 1 NE 1009,7 20 -
24.02.2018 03:00:00 -1,5 -6,1 2 1 E 1009,7 20 0,0
24.02.2018 02:00:00 -0,9 -5,9 4 2 E 1009,3 20 0,0
24.02.2018 01:00:00 0,0 -6,2 2 1 NE 1009,2 20 -
24.02.2018 00:00:00 0,9 -6,2 2 1 E 1008,7 20 0,0
23.02.2018 23:00:00 2,7 -6,4 2 1 ENE 1007,9 19 0,0
23.02.2018 22:00:00 5,4 -7,1 4 2 S 1006,8 20 -
23.02.2018 21:00:00 6,9 -7,5 9 5 E 1006,1 20 0,0
23.02.2018 20:00:00 7,9 -5,2 5 3 SE 1005,6 20 0,0
23.02.2018 19:00:00 11,7 -4,5 2 1 WNW 1004,4 19 -
23.02.2018 18:00:00 13,3 -6,9 5 3 W 1004,1 4,0 0,0
23.02.2018 17:00:00 13,3 -7,4 5 3 WNW 1004,3 7 0,0
23.02.2018 16:00:00 13,1 -8,2 5 3 W 1004,8 20 -
23.02.2018 15:00:00 11,9 -6,5 8 4 W 1005,7 20 0,0
23.02.2018 14:00:00 10,0 -7,3 5 3 W 1007,2 20 0,0
23.02.2018 13:00:00 7,4 -6,4 5 3 W 1008,9 20 -
23.02.2018 12:00:00 5,2 -5,8 5 3 W 1010,2 20 0,0
23.02.2018 11:00:00 3,2 -4,5 5 3 W 1011,2 20 0,0
23.02.2018 10:00:00 1,9 -6,2 4 2 SW 1012,0 20 -
23.02.2018 09:00:00 -2,0 -6,6 2 1 SE 1012,8 13 0,0
23.02.2018 08:00:00 -2,7 -5,7 2 1 SE 1012,8 19 0,0
23.02.2018 07:00:00 -2,3 -6,5 2 1 ENE 1013,0 20 -
23.02.2018 06:00:00 -1,7 -5,2 4 2 ESE 1012,6 20 0,0
23.02.2018 05:00:00 -1,1 -5,3 4 2 E 1012,2 20 0,0
23.02.2018 04:00:00 -0,2 -5,4 4 2 E 1012,2 20 -
23.02.2018 03:00:00 1,3 -5,2 2 1 ESE 1012,2 20 0,0
23.02.2018 02:00:00 3,2 -5,7 4 2 S 1011,6 20 0,0
23.02.2018 01:00:00 4,3 -5,8 5 3 E 1011,6 20 -
23.02.2018 00:00:00 5,0 -4,8 13 7 E 1011,1 20 0,0
22.02.2018 23:00:00 5,8 -4,1 13 7 E 1011,0 20 0,0
22.02.2018 22:00:00 6,9 -4,2 11 6 E 1010,2 20 -
22.02.2018 21:00:00 7,8 -4,0 8 4 E 1009,8 20 0,0
22.02.2018 20:00:00 8,9 -0,4 4 2 ESE 1009,4 20 0,0
22.02.2018 19:00:00 12,6 -0,3 5 3 WNW 1007,9 20 -
22.02.2018 18:00:00 14,4 -3,4 4 2 SW 1007,3 20 0,0
22.02.2018 17:00:00 13,7 -3,6 4 2 ESE 1007,7 20 0,0
22.02.2018 16:00:00 13,2 -1,6 5 3 NW 1008,3 20 -
22.02.2018 15:00:00 11,8 -1,4 4 2 W 1009,5 20 0,0
22.02.2018 14:00:00 10,0 -2,7 5 3 WNW 1010,9 20 0,0
22.02.2018 13:00:00 7,6 -1,4 4 2 WSW 1012,6 20 -
22.02.2018 12:00:00 5,3 -1,2 4 2 SW 1014,0 20 0,0
22.02.2018 11:00:00 2,6 -1,8 5 3 WNW 1015,4 19 0,0
22.02.2018 10:00:00 1,0 -2,2 4 2 WNW 1016,3 20 -
22.02.2018 09:00:00 -1,6 -2,7 2 1 SW 1017,1 19 0,0
22.02.2018 08:00:00 -2,5 -4,2 2 1 N 1017,2 20 0,0
22.02.2018 07:00:00 -1,9 -3,9 2 1 S 1017,1 20 -
22.02.2018 06:00:00 -1,8 -3,8 2 1 NW 1016,3 20 0,0
22.02.2018 05:00:00 -1,3 -3,7 2 1 E 1016,1 20 0,0
22.02.2018 04:00:00 -0,7 -3,6 2 1 ESE 1016,0 20 -
22.02.2018 03:00:00 0,1 -3,1 2 1 SSW 1016,3 18 0,0
22.02.2018 02:00:00 0,8 -2,8 4 2 S 1016,0 20 0,0
22.02.2018 01:00:00 2,2 -2,7 5 3 NW 1015,9 20 -
22.02.2018 00:00:00 3,1 -2,2 4 2 ESE 1015,5 20 0,0
21.02.2018 23:00:00 4,0 -1,8 4 2 SE 1015,4 20 0,0
21.02.2018 22:00:00 5,1 -0,9 4 2 S 1015,0 19 -
21.02.2018 21:00:00 6,6 -0,6 5 3 ESE 1014,4 20 0,0
21.02.2018 20:00:00 8,8 -0,8 4 2 NNE 1013,6 20 0,0
21.02.2018 19:00:00 11,1 -0,4 9 5 NNE 1012,6 20 -
21.02.2018 18:00:00 13,7 -0,4 5 3 N 1011,6 9 0,0
21.02.2018 17:00:00 14,8 -0,5 5 3 N 1011,4 10 0,0
21.02.2018 16:00:00 14,9 -0,8 5 3 SW 1011,8 20 -
21.02.2018 15:00:00 14,1 -0,4 4 2 W 1012,9 20 0,0
21.02.2018 14:00:00 12,1 -0,4 5 3 WNW 1014,5 20 0,0
21.02.2018 13:00:00 10,0 0,0 5 3 WNW 1016,2 20 -
21.02.2018 12:00:00 8,2 1,3 4 2 W 1017,5 20 0,0
21.02.2018 11:00:00 6,3 1,6 4 2 NNW 1018,3 20 0,0
21.02.2018 10:00:00 4,1 0,8 2 1 W 1019,0 20 -
21.02.2018 09:00:00 0,7 -0,2 2 1 N 1019,5 16 0,0
21.02.2018 08:00:00 0,2 -0,9 2 1 ENE 1019,3 20 0,0
21.02.2018 07:00:00 1,0 -0,8 2 1 E 1019,5 20 -
21.02.2018 06:00:00 1,9 0,4 2 1 ESE 1019,8 20 0,0
21.02.2018 05:00:00 1,3 -0,2 2 1 ENE 1020,2 20 0,0
21.02.2018 04:00:00 2,0 0,1 4 2 SSE 1020,8 20 -
21.02.2018 03:00:00 2,7 0,4 4 2 NNE 1021,7 20 0,0
21.02.2018 02:00:00 3,3 0,5 4 2 ESE 1022,3 20 0,0
21.02.2018 01:00:00 4,4 1,1 4 2 SSE 1022,8 20 -
21.02.2018 00:00:00 5,3 1,2 4 2 ESE 1022,8 20 0,0
20.02.2018 23:00:00 5,5 1,6 4 2 SSE 1023,2 20 0,0
20.02.2018 22:00:00 6,8 1,7 4 2 ESE 1022,7 20 -
20.02.2018 21:00:00 9,6 2,0 2 1 W 1021,7 20 0,0
20.02.2018 20:00:00 10,9 1,9 9 5 NE 1021,3 20 0,0
20.02.2018 19:00:00 12,2 2,3 8 4 NNE 1020,4 20 -
20.02.2018 18:00:00 14,2 2,4 15 8 NNE 1019,7 20 0,0
20.02.2018 17:00:00 15,9 2,7 11 6 NNE 1019,3 20 0,0
20.02.2018 16:00:00 16,5 3,2 9 5 WNW 1019,1 19 -
20.02.2018 15:00:00 15,8 3,6 8 4 WNW 1020,0 20 0,0
20.02.2018 14:00:00 14,5 3,3 4 2 S 1021,2 20 0,0
20.02.2018 13:00:00 12,8 3,7 5 3 SSW 1022,3 20 -
20.02.2018 12:00:00 11,0 3,8 5 3 WSW 1023,4 20 0,0
20.02.2018 11:00:00 8,7 4,7 5 3 WSW 1024,2 20 0,0
20.02.2018 10:00:00 6,6 3,7 4 2 SSE 1024,3 20 -
20.02.2018 09:00:00 3,7 2,7 4 2 ESE 1024,8 20 0,0
20.02.2018 08:00:00 3,6 2,4 4 2 SE 1024,7 17 0,0
20.02.2018 07:00:00 3,9 2,7 4 2 ESE 1024,8 20 -
20.02.2018 06:00:00 4,8 3,3 4 2 SE 1024,5 20 0,0
20.02.2018 05:00:00 6,0 4,0 2 1 ESE 1024,0 20 0,0
20.02.2018 04:00:00 5,9 4,1 2 1 ESE 1023,9 20 -
20.02.2018 03:00:00 7,5 5,0 4 2 W 1023,7 20 0,0
20.02.2018 02:00:00 8,3 5,2 2 1 NE 1023,6 20 0,0
20.02.2018 01:00:00 8,2 5,5 2 1 E 1023,6 20 -
20.02.2018 00:00:00 8,4 5,7 2 1 ESE 1023,5 20 0,0
19.02.2018 23:00:00 8,3 5,9 2 1 ESE 1023,5 20 0,0
19.02.2018 22:00:00 8,3 5,8 2 1 SE 1023,5 20 -
19.02.2018 21:00:00 9,3 5,8 2 1 SW 1023,1 20 0,0
19.02.2018 20:00:00 9,9 6,1 2 1 WNW 1023,1 20 0,0
19.02.2018 19:00:00 10,3 6,3 5 3 WSW 1022,7 20 -
19.02.2018 18:00:00 10,6 7,1 8 4 W 1022,5 20 0,0
19.02.2018 17:00:00 11,5 6,0 9 5 WNW 1022,2 20 0,0
19.02.2018 16:00:00 12,1 4,8 8 4 WNW 1022,1 18 -
19.02.2018 15:00:00 12,1 4,3 5 3 WSW 1022,3 20 0,0
19.02.2018 14:00:00 11,6 4,3 5 3 WSW 1022,7 19 0,0
19.02.2018 13:00:00 10,6 4,7 5 3 W 1023,5 20 -
19.02.2018 12:00:00 9,1 5,1 2 1 WSW 1024,0 20 0,0
19.02.2018 11:00:00 7,8 4,7 0 0 N 1024,1 20 0,0
19.02.2018 10:00:00 7,3 4,3 2 1 WNW 1024,4 20 -
19.02.2018 09:00:00 6,8 4,5 2 1 SE 1024,3 20 0,0
19.02.2018 08:00:00 6,4 4,6 4 2 ESE 1024,0 20 0,0
19.02.2018 07:00:00 6,5 4,5 4 2 ESE 1023,9 20 -
19.02.2018 06:00:00 6,8 4,5 2 1 NNW 1023,5 19 0,0
19.02.2018 05:00:00 6,9 4,6 2 1 SE 1023,1 20 0,0
19.02.2018 04:00:00 7,1 4,7 4 2 SSE 1023,6 20 -
19.02.2018 03:00:00 7,3 4,6 0 0 N 1024,0 20 0,0
19.02.2018 02:00:00 7,3 4,6 4 2 SSE 1024,3 20 0,0

tt = Température de l'air
td = dewpoint
ff = Vitesse du vent
dd = Direction du vent
ppp = reduced air pressure
vv = visibility
rr = Quantités de précipitations

stations d'obs. à proximité